| time (UTC) | temp F | wind direction | speed MPH | gust MPH | rain 1hr in | rain 24hr in | rain mn in | humidity % | barometer mb |
| 20260508115300 | 50 | 183 | 1.0 | 3.0 | 0.00 | 0.00 | 0.00 | 78 | 1011.3 |
| 20260508114756 | 50 | 180 | 2.0 | 3.0 | 0.00 | 0.00 | 0.00 | 79 | 1011.2 |
| 20260508114253 | 50 | 184 | 0.0 | 3.0 | 0.00 | 0.00 | 0.00 | 79 | 1011.0 |
| 20260508113749 | 50 | 209 | 1.0 | 2.0 | 0.00 | 0.00 | 0.00 | 79 | 1011.1 |
| 20260508113248 | 50 | 145 | 0.0 | 5.0 | 0.00 | 0.00 | 0.00 | 79 | 1011.1 |
| 20260508112744 | 49 | 187 | 1.0 | 3.0 | 0.00 | 0.00 | 0.00 | 79 | 1010.9 |
| 20260508112241 | 49 | 199 | 0.0 | 3.0 | 0.00 | 0.00 | 0.00 | 79 | 1011.0 |
| 20260508111737 | 49 | 152 | 1.0 | 2.0 | 0.00 | 0.00 | 0.00 | 79 | 1011.0 |
| 20260508111235 | 50 | 180 | 1.0 | 3.0 | 0.00 | 0.00 | 0.00 | 78 | 1010.8 |
| 20260508110733 | 50 | 63 | 1.0 | 2.0 | 0.00 | 0.00 | 0.00 | 77 | 1010.9 |
| 20260508110230 | 50 | 266 | 1.0 | 5.0 | 0.00 | 0.00 | 0.00 | 76 | 1011.0 |
| 20260508105729 | 50 | 159 | 1.0 | 3.0 | 0.00 | 0.00 | 0.00 | 74 | 1010.8 |
| 20260508105227 | 50 | 103 | 0.0 | 3.0 | 0.00 | 0.00 | 0.00 | 75 | 1010.9 |
| 20260508104724 | 50 | 54 | 0.0 | 3.0 | 0.00 | 0.00 | 0.00 | 75 | 1010.6 |
| 20260508104221 | 49 | 209 | 3.0 | 5.0 | 0.00 | 0.00 | 0.00 | 76 | 1010.8 |
| 20260508103718 | 49 | 140 | 0.0 | 3.0 | 0.00 | 0.00 | 0.00 | 76 | 1010.9 |
| 20260508103215 | 49 | 59 | 0.0 | 4.0 | 0.00 | 0.00 | 0.00 | 76 | 1010.7 |
| 20260508102712 | 49 | 353 | 1.0 | 4.0 | 0.00 | 0.00 | 0.00 | 76 | 1010.7 |
| 20260508102210 | 48 | 123 | 2.0 | 3.0 | 0.00 | 0.00 | 0.00 | 77 | 1010.7 |
| 20260508101707 | 48 | 114 | 1.0 | 3.0 | 0.00 | 0.00 | 0.00 | 77 | 1010.6 |
| 20260508101205 | 48 | 172 | 0.0 | 3.0 | 0.00 | 0.00 | 0.00 | 77 | 1010.8 |
| 20260508100702 | 48 | 138 | 2.0 | 4.0 | 0.00 | 0.00 | 0.00 | 80 | 1010.8 |
| 20260508100200 | 47 | 74 | 0.0 | 3.0 | 0.00 | 0.00 | 0.00 | 81 | 1010.8 |
| 20260508095656 | 47 | 122 | 2.0 | 2.0 | 0.00 | 0.00 | 0.00 | 82 | 1010.9 |
| 20260508095153 | 47 | 159 | 0.0 | 2.0 | 0.00 | 0.00 | 0.00 | 83 | 1010.8 |
| 20260508094650 | 46 | 197 | 0.0 | 2.0 | 0.00 | 0.00 | 0.00 | 84 | 1010.8 |
| 20260508094147 | 46 | 113 | 0.0 | 3.0 | 0.00 | 0.00 | 0.00 | 84 | 1010.7 |
| 20260508093644 | 46 | 81 | 1.0 | 3.0 | 0.00 | 0.00 | 0.00 | 84 | 1010.7 |
| 20260508093142 | 46 | 114 | 0.0 | 2.0 | 0.00 | 0.00 | 0.00 | 84 | 1010.8 |
| 20260508092639 | 46 | 64 | 1.0 | 3.0 | 0.00 | 0.00 | 0.00 | 84 | 1010.8 |
| 20260508092137 | 45 | 125 | 0.0 | 2.0 | 0.00 | 0.00 | 0.00 | 83 | 1010.9 |
| 20260508091634 | 46 | 79 | 1.0 | 5.0 | 0.00 | 0.00 | 0.00 | 83 | 1010.8 |
| 20260508091131 | 46 | 27 | 0.0 | 3.0 | 0.00 | 0.00 | 0.00 | 83 | 1011.0 |
| 20260508090629 | 46 | 164 | 0.0 | 2.0 | 0.00 | 0.00 | 0.00 | 82 | 1011.0 |
| 20260508090126 | 46 | 203 | 1.0 | 2.0 | 0.00 | 0.00 | 0.00 | 82 | 1011.0 |
| 20260508085622 | 46 | 136 | 1.0 | 3.0 | 0.00 | 0.00 | 0.00 | 82 | 1010.9 |
| 20260508085119 | 47 | 229 | 0.0 | 3.0 | 0.00 | 0.00 | 0.00 | 81 | 1011.0 |
| 20260508084616 | 47 | 100 | 0.0 | 3.0 | 0.00 | 0.00 | 0.00 | 81 | 1011.0 |
| 20260508084114 | 47 | 212 | 2.0 | 6.0 | 0.00 | 0.00 | 0.00 | 81 | 1011.1 |
| 20260508083610 | 47 | 163 | 2.0 | 3.0 | 0.00 | 0.00 | 0.00 | 81 | 1011.0 |
| 20260508083107 | 47 | 193 | 2.0 | 4.0 | 0.00 | 0.00 | 0.00 | 81 | 1011.1 |
| 20260508082603 | 47 | 148 | 1.0 | 3.0 | 0.00 | 0.00 | 0.00 | 80 | 1010.9 |
| 20260508082100 | 47 | 194 | 0.0 | 3.0 | 0.00 | 0.00 | 0.00 | 80 | 1011.1 |
| 20260508081552 | 47 | 163 | 3.0 | 4.0 | 0.00 | 0.00 | 0.00 | 80 | 1011.0 |
| 20260508081048 | 47 | 197 | 3.0 | 5.0 | 0.00 | 0.00 | 0.00 | 80 | 1011.3 |
| 20260508080546 | 47 | 150 | 0.0 | 6.0 | 0.00 | 0.00 | 0.00 | 80 | 1011.2 |
| 20260508080043 | 46 | 6 | 1.0 | 5.0 | 0.00 | 0.00 | 0.00 | 79 | 1011.2 |
| 20260508075539 | 46 | 133 | 2.0 | 3.0 | 0.00 | 0.00 | 0.00 | 79 | 1011.4 |
| 20260508075037 | 47 | 124 | 1.0 | 2.0 | 0.00 | 0.00 | 0.00 | 79 | 1011.0 |
| 20260508074535 | 47 | 233 | 2.0 | 4.0 | 0.00 | 0.00 | 0.00 | 79 | 1011.2 |
| 20260508074031 | 47 | 208 | 0.0 | 4.0 | 0.00 | 0.00 | 0.00 | 78 | 1011.2 |
| 20260508073529 | 47 | 195 | 0.0 | 2.0 | 0.00 | 0.00 | 0.00 | 78 | 1011.3 |
| 20260508073026 | 47 | 191 | 1.0 | 3.0 | 0.00 | 0.00 | 0.00 | 78 | 1011.4 |
| 20260508072522 | 47 | 145 | 0.0 | 4.0 | 0.00 | 0.00 | 0.00 | 77 | 1011.2 |
| 20260508072019 | 47 | 183 | 2.0 | 3.0 | 0.00 | 0.00 | 0.00 | 77 | 1011.3 |
| 20260508071517 | 47 | 225 | 1.0 | 3.0 | 0.00 | 0.00 | 0.00 | 77 | 1011.4 |
| 20260508071015 | 48 | 180 | 3.0 | 3.0 | 0.00 | 0.00 | 0.00 | 76 | 1011.3 |
| 20260508070512 | 48 | 77 | 0.0 | 3.0 | 0.00 | 0.00 | 0.00 | 76 | 1011.5 |
| 20260508070010 | 48 | 161 | 2.0 | 3.0 | 0.00 | 0.00 | 0.00 | 75 | 1011.2 |
| 20260508065508 | 48 | 221 | 2.0 | 9.0 | 0.00 | 0.00 | 0.00 | 75 | 1011.6 |
| 20260508065006 | 48 | 39 | 3.0 | 5.0 | 0.00 | 0.00 | 0.00 | 74 | 1011.4 |
| 20260508064503 | 48 | 292 | 2.0 | 5.0 | 0.00 | 0.00 | 0.00 | 74 | 1011.5 |
| 20260508064000 | 47 | 172 | 1.0 | 3.0 | 0.00 | 0.00 | 0.00 | 74 | 1011.2 |
| 20260508063458 | 47 | 171 | 2.0 | 4.0 | 0.00 | 0.00 | 0.00 | 74 | 1011.4 |
| 20260508062955 | 47 | 207 | 2.0 | 4.0 | 0.00 | 0.00 | 0.00 | 74 | 1011.4 |
| 20260508062453 | 47 | 121 | 3.0 | 5.0 | 0.00 | 0.00 | 0.00 | 75 | 1011.5 |
| 20260508061949 | 47 | 127 | 1.0 | 2.0 | 0.00 | 0.00 | 0.00 | 74 | 1011.4 |
| 20260508061448 | 47 | 195 | 0.0 | 2.0 | 0.00 | 0.00 | 0.00 | 74 | 1011.4 |
| 20260508060943 | 48 | 139 | 1.0 | 3.0 | 0.00 | 0.00 | 0.00 | 73 | 1011.5 |
| 20260508060441 | 47 | 228 | 1.0 | 3.0 | 0.00 | 0.00 | 0.00 | 73 | 1011.3 |
| 20260508055937 | 47 | 198 | 3.0 | 3.0 | 0.00 | 0.00 | 0.00 | 74 | 1011.4 |
| 20260508055434 | 47 | 97 | 2.0 | 3.0 | 0.00 | 0.00 | 0.00 | 74 | 1011.6 |
| 20260508054930 | 47 | 111 | 1.0 | 2.0 | 0.00 | 0.00 | 0.00 | 74 | 1011.6 |
| 20260508054428 | 48 | 162 | 0.0 | 3.0 | 0.00 | 0.00 | 0.00 | 73 | 1011.6 |
| 20260508053925 | 48 | 180 | 0.0 | 2.0 | 0.00 | 0.00 | 0.00 | 72 | 1011.7 |
| 20260508053422 | 48 | 186 | 2.0 | 3.0 | 0.00 | 0.00 | 0.00 | 72 | 1011.7 |
| 20260508052919 | 48 | 116 | 0.0 | 2.0 | 0.00 | 0.00 | 0.00 | 72 | 1011.9 |
| 20260508052416 | 48 | 115 | 2.0 | 3.0 | 0.00 | 0.00 | 0.00 | 72 | 1011.6 |
| 20260508051912 | 48 | 89 | 2.0 | 2.0 | 0.00 | 0.00 | 0.00 | 72 | 1011.9 |
| 20260508051408 | 48 | 120 | 0.0 | 3.0 | 0.00 | 0.00 | 0.00 | 72 | 1011.8 |
| 20260508050904 | 48 | 181 | 0.0 | 4.0 | 0.00 | 0.00 | 0.00 | 71 | 1011.9 |
| 20260508050401 | 48 | 207 | 0.0 | 3.0 | 0.00 | 0.00 | 0.00 | 72 | 1011.9 |
| 20260508045857 | 48 | 132 | 0.0 | 2.0 | 0.00 | 0.00 | 0.00 | 71 | 1012.1 |
| 20260508045355 | 48 | 140 | 0.0 | 3.0 | 0.00 | 0.00 | 0.00 | 71 | 1011.9 |
| 20260508044852 | 48 | 106 | 0.0 | 3.0 | 0.00 | 0.00 | 0.00 | 70 | 1011.9 |
| 20260508044349 | 48 | 139 | 0.0 | 2.0 | 0.00 | 0.00 | 0.00 | 69 | 1012.0 |
| 20260508043844 | 48 | 182 | 0.0 | 2.0 | 0.00 | 0.00 | 0.00 | 68 | 1011.9 |
| 20260508043342 | 49 | 107 | 1.0 | 3.0 | 0.00 | 0.00 | 0.00 | 67 | 1012.1 |
| 20260508042838 | 49 | 194 | 1.0 | 3.0 | 0.00 | 0.00 | 0.00 | 67 | 1011.9 |
| 20260508042337 | 49 | 162 | 0.0 | 2.0 | 0.00 | 0.00 | 0.00 | 67 | 1012.0 |
| 20260508041833 | 49 | 27 | 1.0 | 3.0 | 0.00 | 0.00 | 0.00 | 67 | 1012.0 |
| 20260508041329 | 49 | 77 | 0.0 | 3.0 | 0.00 | 0.00 | 0.00 | 67 | 1011.9 |
| 20260508040826 | 49 | 212 | 2.0 | 3.0 | 0.00 | 0.00 | 0.00 | 65 | 1011.9 |
| 20260508040324 | 49 | 127 | 0.0 | 3.0 | 0.00 | 0.00 | 0.00 | 66 | 1011.9 |
| 20260508035820 | 49 | 256 | 0.0 | 3.0 | 0.00 | 0.00 | 0.00 | 66 | 1012.0 |
| 20260508035318 | 50 | 192 | 2.0 | 4.0 | 0.00 | 0.00 | 0.00 | 65 | 1012.0 |
| 20260508034814 | 50 | 357 | 1.0 | 3.0 | 0.00 | 0.00 | 0.00 | 64 | 1012.1 |
| 20260508034312 | 50 | 0 | 1.0 | 5.0 | 0.00 | 0.00 | 0.00 | 63 | 1012.1 |
| 20260508033809 | 50 | 171 | 2.0 | 4.0 | 0.00 | 0.00 | 0.00 | 64 | 1011.9 |
| 20260508033307 | 50 | 199 | 1.0 | 4.0 | 0.00 | 0.00 | 0.00 | 64 | 1012.1 |
| 20260508032804 | 50 | 210 | 2.0 | 3.0 | 0.00 | 0.00 | 0.00 | 64 | 1012.1 |
| 20260508032301 | 50 | 216 | 3.0 | 5.0 | 0.00 | 0.00 | 0.00 | 63 | 1012.1 |
| 20260508031758 | 50 | 234 | 1.0 | 5.0 | 0.00 | 0.00 | 0.00 | 62 | 1012.2 |
| 20260508031254 | 50 | 200 | 2.0 | 4.0 | 0.00 | 0.00 | 0.00 | 63 | 1012.1 |
| 20260508030751 | 50 | 216 | 0.0 | 3.0 | 0.00 | 0.00 | 0.00 | 63 | 1012.1 |
| 20260508030248 | 50 | 219 | 2.0 | 4.0 | 0.00 | 0.00 | 0.00 | 63 | 1012.3 |
| 20260508025745 | 49 | 62 | 2.0 | 3.0 | 0.00 | 0.00 | 0.00 | 64 | 1012.1 |
| 20260508025242 | 49 | 204 | 3.0 | 5.0 | 0.00 | 0.00 | 0.00 | 64 | 1012.1 |
| 20260508024738 | 48 | 192 | 2.0 | 3.0 | 0.00 | 0.00 | 0.00 | 67 | 1012.4 |
| 20260508024235 | 47 | 92 | 1.0 | 3.0 | 0.00 | 0.00 | 0.00 | 72 | 1012.2 |
| 20260508023732 | 46 | 37 | 0.0 | 2.0 | 0.00 | 0.00 | 0.00 | 74 | 1012.1 |
| 20260508023229 | 46 | 195 | 0.0 | 3.0 | 0.00 | 0.00 | 0.00 | 75 | 1012.3 |
| 20260508022725 | 46 | 97 | 0.0 | 1.0 | 0.00 | 0.00 | 0.00 | 77 | 1012.2 |
| 20260508022222 | 46 | 149 | 0.0 | 3.0 | 0.00 | 0.00 | 0.00 | 77 | 1012.3 |
| 20260508021718 | 46 | 134 | 0.0 | 3.0 | 0.00 | 0.00 | 0.00 | 77 | 1012.1 |
| 20260508021214 | 46 | 81 | 0.0 | 2.0 | 0.00 | 0.00 | 0.00 | 77 | 1012.1 |
| 20260508020711 | 46 | 169 | 1.0 | 2.0 | 0.00 | 0.00 | 0.00 | 76 | 1012.1 |
| 20260508020208 | 46 | 180 | 0.0 | 2.0 | 0.00 | 0.00 | 0.00 | 76 | 1011.9 |
| 20260508015706 | 46 | 171 | 1.0 | 2.0 | 0.00 | 0.00 | 0.00 | 75 | 1011.9 |
| 20260508015203 | 46 | 125 | 2.0 | 2.0 | 0.00 | 0.00 | 0.00 | 75 | 1011.9 |
| 20260508014659 | 46 | 124 | 0.0 | 2.0 | 0.00 | 0.00 | 0.00 | 75 | 1012.0 |
| 20260508014155 | 46 | 203 | 1.0 | 2.0 | 0.00 | 0.00 | 0.00 | 75 | 1011.8 |
| 20260508013652 | 45 | 100 | 0.0 | 2.0 | 0.00 | 0.00 | 0.00 | 75 | 1011.7 |
| 20260508013148 | 45 | 89 | 0.0 | 2.0 | 0.00 | 0.00 | 0.00 | 74 | 1011.7 |
| 20260508012646 | 45 | 177 | 0.0 | 1.0 | 0.00 | 0.00 | 0.00 | 73 | 1011.7 |
| 20260508012143 | 46 | 164 | 0.0 | 1.0 | 0.00 | 0.00 | 0.00 | 72 | 1011.5 |
| 20260508011641 | 46 | 181 | 0.0 | 1.0 | 0.00 | 0.00 | 0.00 | 71 | 1011.8 |
| 20260508011138 | 47 | 104 | 0.0 | 2.0 | 0.00 | 0.00 | 0.00 | 69 | 1011.5 |
| 20260508010635 | 47 | 97 | 1.0 | 2.0 | 0.00 | 0.00 | 0.00 | 68 | 1011.4 |
| 20260508010133 | 48 | 116 | 0.0 | 2.0 | 0.00 | 0.00 | 0.00 | 65 | 1011.4 |
| 20260508005630 | 48 | 89 | 0.0 | 2.0 | 0.00 | 0.00 | 0.00 | 66 | 1011.4 |
| 20260508005126 | 48 | 134 | 0.0 | 2.0 | 0.00 | 0.00 | 0.00 | 65 | 1011.5 |
| 20260508004622 | 49 | 99 | 0.0 | 1.0 | 0.00 | 0.00 | 0.00 | 64 | 1011.5 |
| 20260508004119 | 49 | 116 | 0.0 | 2.0 | 0.00 | 0.00 | 0.00 | 62 | 1011.5 |
| 20260508003615 | 49 | 151 | 0.0 | 2.0 | 0.00 | 0.00 | 0.00 | 59 | 1011.5 |
| 20260508003113 | 50 | 50 | 0.0 | 1.0 | 0.00 | 0.00 | 0.00 | 58 | 1011.5 |
| 20260508002609 | 51 | 139 | 0.0 | 1.0 | 0.00 | 0.00 | 0.00 | 55 | 1011.5 |
| 20260508002107 | 51 | 135 | 0.0 | 2.0 | 0.00 | 0.00 | 0.00 | 54 | 1011.4 |
| 20260508001602 | 52 | 135 | 0.0 | 3.0 | 0.00 | 0.00 | 0.00 | 54 | 1011.3 |
| 20260508001058 | 52 | 186 | 0.0 | 2.0 | 0.00 | 0.00 | 0.00 | 54 | 1011.1 |
| 20260508000554 | 53 | 133 | 1.0 | 2.0 | 0.00 | 0.00 | 0.00 | 52 | 1011.2 |
| 20260508000052 | 53 | 224 | 2.0 | 3.0 | 0.00 | 0.00 | 0.00 | 49 | 1011.2 |
| 20260507235548 | 53 | 217 | 5.0 | 7.0 | 0.00 | 0.00 | 0.00 | 48 | 1011.2 |
| 20260507235046 | 53 | 207 | 1.0 | 5.0 | 0.00 | 0.00 | 0.00 | 48 | 1011.1 |
| 20260507234542 | 54 | 224 | 2.0 | 5.0 | 0.00 | 0.00 | 0.00 | 48 | 1011.1 |
| 20260507234039 | 54 | 249 | 2.0 | 4.0 | 0.00 | 0.00 | 0.00 | 47 | 1011.1 |
| 20260507233535 | 54 | 224 | 0.0 | 5.0 | 0.00 | 0.00 | 0.00 | 46 | 1011.2 |
| 20260507233034 | 54 | 225 | 3.0 | 8.0 | 0.00 | 0.00 | 0.00 | 46 | 1011.3 |
| 20260507232530 | 54 | 208 | 0.0 | 6.0 | 0.00 | 0.00 | 0.00 | 46 | 1011.1 |
| 20260507232028 | 54 | 203 | 3.0 | 9.0 | 0.00 | 0.00 | 0.00 | 46 | 1011.2 |
| 20260507231524 | 54 | 218 | 3.0 | 11.0 | 0.00 | 0.00 | 0.00 | 46 | 1011.0 |
| 20260507231021 | 54 | 83 | 3.0 | 8.0 | 0.00 | 0.00 | 0.00 | 47 | 1011.2 |
| 20260507230518 | 54 | 30 | 3.0 | 9.0 | 0.00 | 0.00 | 0.00 | 48 | 1011.3 |
| 20260507230014 | 55 | 61 | 4.0 | 8.0 | 0.00 | 0.00 | 0.00 | 47 | 1011.5 |
| 20260507225510 | 55 | 235 | 4.0 | 6.0 | 0.00 | 0.00 | 0.00 | 48 | 1011.4 |
| 20260507225007 | 55 | 328 | 3.0 | 8.0 | 0.00 | 0.00 | 0.00 | 48 | 1011.2 |
| 20260507224502 | 55 | 223 | 7.0 | 9.0 | 0.00 | 0.00 | 0.00 | 47 | 1011.3 |
| 20260507223958 | 55 | 216 | 4.0 | 9.0 | 0.00 | 0.00 | 0.00 | 45 | 1011.5 |
| 20260507223454 | 55 | 108 | 3.0 | 9.0 | 0.00 | 0.00 | 0.00 | 49 | 1011.5 |
| 20260507222952 | 55 | 340 | 3.0 | 5.0 | 0.00 | 0.00 | 0.00 | 49 | 1011.5 |
| 20260507222449 | 55 | 40 | 3.0 | 9.0 | 0.00 | 0.00 | 0.00 | 47 | 1011.3 |
| 20260507221945 | 55 | 221 | 7.0 | 12.0 | 0.00 | 0.00 | 0.00 | 44 | 1011.3 |
| 20260507221442 | 55 | 359 | 5.0 | 11.0 | 0.00 | 0.00 | 0.00 | 44 | 1011.3 |
| 20260507220938 | 55 | 350 | 2.0 | 18.0 | 0.00 | 0.00 | 0.00 | 44 | 1011.4 |
| 20260507220436 | 55 | 4 | 4.0 | 11.0 | 0.00 | 0.00 | 0.00 | 43 | 1011.5 |
| 20260507215932 | 57 | 130 | 0.0 | 7.0 | 0.00 | 0.00 | 0.00 | 44 | 1011.3 |
| 20260507215429 | 57 | 356 | 3.0 | 11.0 | 0.00 | 0.00 | 0.00 | 44 | 1011.3 |
| 20260507214926 | 57 | 309 | 1.0 | 9.0 | 0.00 | 0.00 | 0.00 | 42 | 1011.2 |
| 20260507214424 | 57 | 47 | 4.0 | 5.0 | 0.00 | 0.00 | 0.00 | 43 | 1011.4 |
| 20260507213919 | 56 | 35 | 3.0 | 11.0 | 0.00 | 0.00 | 0.00 | 45 | 1011.1 |
| 20260507213416 | 56 | 230 | 6.0 | 18.0 | 0.00 | 0.00 | 0.00 | 41 | 1011.3 |
| 20260507212913 | 56 | 215 | 8.0 | 12.0 | 0.00 | 0.00 | 0.00 | 41 | 1011.1 |
| 20260507212409 | 56 | 183 | 3.0 | 12.0 | 0.00 | 0.00 | 0.00 | 41 | 1011.3 |
| 20260507211906 | 57 | 1 | 5.0 | 14.0 | 0.00 | 0.00 | 0.00 | 42 | 1011.2 |
| 20260507211402 | 57 | 207 | 4.0 | 12.0 | 0.00 | 0.00 | 0.00 | 40 | 1011.4 |
| 20260507210859 | 57 | 221 | 3.0 | 12.0 | 0.00 | 0.00 | 0.00 | 43 | 1011.0 |
| 20260507210356 | 57 | 356 | 3.0 | 11.0 | 0.00 | 0.00 | 0.00 | 44 | 1011.0 |
| 20260507205853 | 57 | 3 | 5.0 | 16.0 | 0.00 | 0.00 | 0.00 | 46 | 1011.2 |
| 20260507205349 | 57 | 217 | 2.0 | 12.0 | 0.00 | 0.00 | 0.00 | 47 | 1011.1 |
| 20260507204846 | 57 | 231 | 4.0 | 19.0 | 0.00 | 0.00 | 0.00 | 47 | 1011.0 |
| 20260507204343 | 58 | 339 | 2.0 | 6.0 | 0.00 | 0.00 | 0.00 | 50 | 1011.1 |
| 20260507203841 | 58 | 231 | 3.0 | 9.0 | 0.00 | 0.00 | 0.00 | 49 | 1011.2 |
| 20260507203339 | 58 | 354 | 3.0 | 8.0 | 0.00 | 0.00 | 0.00 | 50 | 1011.1 |
| 20260507202834 | 57 | 178 | 11.0 | 11.0 | 0.00 | 0.00 | 0.00 | 47 | 1011.1 |
| 20260507202331 | 57 | 335 | 3.0 | 9.0 | 0.00 | 0.00 | 0.00 | 49 | 1011.0 |
| 20260507201826 | 57 | 223 | 5.0 | 13.0 | 0.00 | 0.00 | 0.00 | 49 | 1011.1 |
| 20260507201322 | 56 | 94 | 2.0 | 8.0 | 0.00 | 0.00 | 0.00 | 57 | 1011.2 |
| 20260507200819 | 54 | 345 | 1.0 | 7.0 | 0.00 | 0.00 | 0.00 | 59 | 1011.2 |
| 20260507200315 | 54 | 202 | 3.0 | 9.0 | 0.00 | 0.00 | 0.00 | 57 | 1011.2 |
| 20260507195811 | 53 | 359 | 3.0 | 8.0 | 0.00 | 0.00 | 0.00 | 56 | 1011.1 |
| 20260507195309 | 53 | 108 | 2.0 | 9.0 | 0.00 | 0.00 | 0.00 | 56 | 1011.2 |
| 20260507194806 | 53 | 225 | 4.0 | 9.0 | 0.00 | 0.00 | 0.00 | 57 | 1011.3 |
| 20260507194302 | 54 | 332 | 2.0 | 6.0 | 0.00 | 0.00 | 0.00 | 58 | 1011.1 |
| 20260507193758 | 54 | 342 | 2.0 | 4.0 | 0.00 | 0.00 | 0.00 | 58 | 1011.4 |
| 20260507193255 | 54 | 310 | 1.0 | 4.0 | 0.00 | 0.00 | 0.00 | 58 | 1011.4 |
| 20260507192751 | 54 | 36 | 2.0 | 3.0 | 0.00 | 0.00 | 0.00 | 60 | 1011.3 |
| 20260507192248 | 53 | 355 | 4.0 | 10.0 | 0.00 | 0.00 | 0.00 | 61 | 1011.5 |
| 20260507191744 | 53 | 276 | 3.0 | 8.0 | 0.00 | 0.00 | 0.00 | 61 | 1011.4 |
| 20260507191241 | 53 | 232 | 4.0 | 14.0 | 0.00 | 0.00 | 0.00 | 58 | 1011.4 |
| 20260507190738 | 53 | 43 | 0.0 | 10.0 | 0.00 | 0.00 | 0.00 | 57 | 1011.4 |
| 20260507190237 | 54 | 256 | 0.0 | 10.0 | 0.00 | 0.00 | 0.00 | 55 | 1011.3 |
| 20260507185735 | 54 | 220 | 5.0 | 7.0 | 0.00 | 0.00 | 0.00 | 55 | 1011.4 |
| 20260507185231 | 54 | 243 | 3.0 | 9.0 | 0.00 | 0.00 | 0.00 | 54 | 1011.3 |
| 20260507184729 | 56 | 26 | 1.0 | 8.0 | 0.00 | 0.00 | 0.00 | 53 | 1011.4 |
| 20260507184227 | 56 | 349 | 4.0 | 6.0 | 0.00 | 0.00 | 0.00 | 52 | 1011.5 |
| 20260507183723 | 57 | 12 | 3.0 | 13.0 | 0.00 | 0.00 | 0.00 | 53 | 1011.3 |
| 20260507183220 | 57 | 9 | 3.0 | 7.0 | 0.00 | 0.00 | 0.00 | 52 | 1011.4 |
| 20260507182717 | 56 | 294 | 2.0 | 7.0 | 0.00 | 0.00 | 0.00 | 53 | 1011.4 |
| 20260507182212 | 58 | 78 | 2.0 | 6.0 | 0.00 | 0.00 | 0.00 | 54 | 1011.4 |
| 20260507181709 | 57 | 300 | 5.0 | 7.0 | 0.00 | 0.00 | 0.00 | 53 | 1011.3 |
| 20260507181206 | 56 | 293 | 3.0 | 9.0 | 0.00 | 0.00 | 0.00 | 54 | 1011.5 |
| 20260507180702 | 55 | 215 | 8.0 | 11.0 | 0.00 | 0.00 | 0.00 | 52 | 1011.5 |
| 20260507180159 | 57 | 141 | 4.0 | 13.0 | 0.00 | 0.00 | 0.00 | 55 | 1011.5 |
| 20260507175655 | 56 | 192 | 1.0 | 8.0 | 0.00 | 0.00 | 0.00 | 52 | 1011.4 |
| 20260507175147 | 56 | 21 | 3.0 | 7.0 | 0.00 | 0.00 | 0.00 | 56 | 1011.4 |
| 20260507174644 | 56 | 205 | 4.0 | 5.0 | 0.00 | 0.00 | 0.00 | 52 | 1011.7 |
| 20260507174142 | 57 | 354 | 4.0 | 7.0 | 0.00 | 0.00 | 0.00 | 52 | 1011.7 |
| 20260507173638 | 55 | 155 | 2.0 | 10.0 | 0.00 | 0.00 | 0.00 | 51 | 1011.6 |
| 20260507173136 | 56 | 155 | 3.0 | 11.0 | 0.00 | 0.00 | 0.00 | 50 | 1011.7 |
| 20260507172631 | 55 | 329 | 3.0 | 9.0 | 0.00 | 0.00 | 0.00 | 53 | 1011.7 |
| 20260507172124 | 55 | 225 | 0.0 | 13.0 | 0.00 | 0.00 | 0.00 | 55 | 1011.9 |
| 20260507171619 | 55 | 331 | 2.0 | 15.0 | 0.00 | 0.00 | 0.00 | 57 | 1011.6 |
| 20260507171116 | 56 | 336 | 4.0 | 8.0 | 0.00 | 0.00 | 0.00 | 57 | 1011.7 |
| 20260507170613 | 56 | 4 | 4.0 | 9.0 | 0.00 | 0.00 | 0.00 | 58 | 1011.8 |
| 20260507170110 | 56 | 217 | 4.0 | 8.0 | 0.00 | 0.00 | 0.00 | 56 | 1011.9 |
| 20260507165605 | 56 | 350 | 5.0 | 11.0 | 0.00 | 0.00 | 0.00 | 57 | 1011.7 |
| 20260507165102 | 56 | 31 | 4.0 | 7.0 | 0.00 | 0.00 | 0.00 | 58 | 1011.7 |
| 20260507164558 | 55 | 241 | 3.0 | 9.0 | 0.00 | 0.00 | 0.00 | 58 | 1011.6 |
| 20260507164055 | 54 | 228 | 8.0 | 12.0 | 0.00 | 0.00 | 0.00 | 53 | 1011.7 |
| 20260507163553 | 57 | 356 | 5.0 | 8.0 | 0.00 | 0.00 | 0.00 | 53 | 1011.6 |
| 20260507163051 | 57 | 39 | 7.0 | 11.0 | 0.00 | 0.00 | 0.00 | 50 | 1011.6 |
| 20260507162550 | 55 | 4 | 5.0 | 7.0 | 0.00 | 0.00 | 0.00 | 53 | 1011.5 |
| 20260507162048 | 56 | 349 | 6.0 | 7.0 | 0.00 | 0.00 | 0.00 | 52 | 1011.6 |
| 20260507161544 | 57 | 200 | 4.0 | 8.0 | 0.00 | 0.00 | 0.00 | 46 | 1011.8 |
| 20260507161041 | 57 | 213 | 3.0 | 10.0 | 0.00 | 0.00 | 0.00 | 47 | 1011.6 |
| 20260507160537 | 57 | 184 | 3.0 | 6.0 | 0.00 | 0.00 | 0.00 | 52 | 1011.7 |
| 20260507160033 | 57 | 350 | 2.0 | 4.0 | 0.00 | 0.00 | 0.00 | 52 | 1011.8 |
| 20260507155528 | 56 | 218 | 2.0 | 6.0 | 0.00 | 0.00 | 0.00 | 50 | 1011.7 |
| 20260507155026 | 56 | 28 | 4.0 | 6.0 | 0.00 | 0.00 | 0.00 | 53 | 1011.8 |
| 20260507154523 | 57 | 241 | 3.0 | 6.0 | 0.00 | 0.00 | 0.00 | 48 | 1012.0 |
| 20260507154020 | 56 | 232 | 4.0 | 7.0 | 0.00 | 0.00 | 0.00 | 53 | 1011.8 |
| 20260507153517 | 56 | 54 | 4.0 | 10.0 | 0.00 | 0.00 | 0.00 | 54 | 1011.8 |
| 20260507153013 | 56 | 39 | 5.0 | 7.0 | 0.00 | 0.00 | 0.00 | 52 | 1012.0 |
| 20260507152509 | 56 | 259 | 6.0 | 13.0 | 0.00 | 0.00 | 0.00 | 53 | 1011.9 |
| 20260507152005 | 56 | 62 | 3.0 | 8.0 | 0.00 | 0.00 | 0.00 | 57 | 1011.9 |
| 20260507151502 | 57 | 69 | 4.0 | 7.0 | 0.00 | 0.00 | 0.00 | 59 | 1012.0 |
| 20260507150959 | 56 | 347 | 1.0 | 9.0 | 0.00 | 0.00 | 0.00 | 58 | 1011.9 |
| 20260507150455 | 57 | 344 | 5.0 | 7.0 | 0.00 | 0.00 | 0.00 | 59 | 1011.8 |
| 20260507145951 | 55 | 119 | 2.0 | 7.0 | 0.00 | 0.00 | 0.00 | 63 | 1012.0 |
| 20260507145447 | 55 | 212 | 3.0 | 9.0 | 0.00 | 0.00 | 0.00 | 63 | 1011.9 |
| 20260507144945 | 55 | 14 | 5.0 | 7.0 | 0.00 | 0.00 | 0.00 | 63 | 1011.9 |
| 20260507144441 | 55 | 352 | 3.0 | 5.0 | 0.00 | 0.00 | 0.00 | 66 | 1011.9 |
| 20260507143938 | 55 | 98 | 3.0 | 7.0 | 0.00 | 0.00 | 0.00 | 66 | 1011.9 |
| 20260507143436 | 52 | 10 | 3.0 | 4.0 | 0.00 | 0.00 | 0.00 | 69 | 1011.7 |
| 20260507142932 | 54 | 125 | 3.0 | 5.0 | 0.00 | 0.00 | 0.00 | 65 | 1011.8 |
| 20260507142428 | 55 | 54 | 2.0 | 7.0 | 0.00 | 0.00 | 0.00 | 67 | 1011.9 |
| 20260507141926 | 55 | 359 | 4.0 | 7.0 | 0.00 | 0.00 | 0.00 | 68 | 1011.9 |
| 20260507141421 | 55 | 4 | 4.0 | 7.0 | 0.00 | 0.00 | 0.00 | 68 | 1011.8 |
| 20260507140918 | 53 | 104 | 2.0 | 5.0 | 0.00 | 0.00 | 0.00 | 67 | 1011.8 |
| 20260507140415 | 53 | 14 | 3.0 | 5.0 | 0.00 | 0.00 | 0.00 | 67 | 1011.9 |
| 20260507135913 | 54 | 220 | 2.0 | 5.0 | 0.00 | 0.00 | 0.00 | 68 | 1012.1 |
| 20260507135409 | 52 | 195 | 3.0 | 5.0 | 0.00 | 0.00 | 0.00 | 70 | 1012.0 |
| 20260507134907 | 51 | 89 | 0.0 | 6.0 | 0.00 | 0.00 | 0.00 | 70 | 1012.1 |
| 20260507134402 | 52 | 101 | 1.0 | 8.0 | 0.00 | 0.00 | 0.00 | 72 | 1012.1 |
| 20260507133859 | 52 | 207 | 2.0 | 6.0 | 0.00 | 0.00 | 0.00 | 71 | 1012.3 |
| 20260507133355 | 52 | 215 | 3.0 | 5.0 | 0.00 | 0.00 | 0.00 | 71 | 1012.2 |
| 20260507132853 | 52 | 119 | 2.0 | 6.0 | 0.00 | 0.00 | 0.00 | 71 | 1012.2 |
| 20260507132349 | 52 | 63 | 0.0 | 3.0 | 0.00 | 0.00 | 0.00 | 71 | 1012.1 |
| 20260507131847 | 52 | 199 | 1.0 | 6.0 | 0.00 | 0.00 | 0.00 | 69 | 1012.2 |
| 20260507131343 | 52 | 88 | 2.0 | 3.0 | 0.00 | 0.00 | 0.00 | 73 | 1012.1 |
| 20260507130840 | 51 | 101 | 0.0 | 3.0 | 0.00 | 0.00 | 0.00 | 75 | 1012.3 |
| 20260507130337 | 50 | 185 | 1.0 | 2.0 | 0.00 | 0.00 | 0.00 | 74 | 1012.4 |
| 20260507125836 | 49 | 52 | 0.0 | 2.0 | 0.00 | 0.00 | 0.00 | 75 | 1012.3 |
| 20260507125333 | 49 | 203 | 2.0 | 3.0 | 0.00 | 0.00 | 0.00 | 75 | 1012.4 |
| 20260507124830 | 48 | 191 | 0.0 | 2.0 | 0.00 | 0.00 | 0.00 | 76 | 1012.3 |
| 20260507124326 | 48 | 354 | 2.0 | 5.0 | 0.00 | 0.00 | 0.00 | 76 | 1012.2 |
| 20260507123825 | 48 | 223 | 0.0 | 2.0 | 0.00 | 0.00 | 0.00 | 76 | 1012.3 |
| 20260507123322 | 48 | 232 | 0.0 | 3.0 | 0.00 | 0.00 | 0.00 | 76 | 1012.4 |
| 20260507122818 | 48 | 240 | 1.0 | 3.0 | 0.00 | 0.00 | 0.00 | 77 | 1012.2 |
| 20260507122314 | 47 | 20 | 2.0 | 3.0 | 0.00 | 0.00 | 0.00 | 78 | 1012.2 |
| 20260507121810 | 47 | 180 | 0.0 | 3.0 | 0.00 | 0.00 | 0.00 | 78 | 1012.4 |
| 20260507121306 | 47 | 180 | 0.0 | 2.0 | 0.00 | 0.00 | 0.00 | 78 | 1012.3 |
| 20260507120803 | 46 | 215 | 0.0 | 2.0 | 0.00 | 0.00 | 0.00 | 79 | 1012.1 |
| 20260507120259 | 46 | 198 | 1.0 | 2.0 | 0.00 | 0.00 | 0.00 | 79 | 1012.1 |
| 20260507115755 | 46 | 196 | 0.0 | 3.0 | 0.00 | 0.00 | 0.00 | 80 | 1012.0 |